Regional Weather Roundup
Issued by NWS Newport/Morehead, NC

Current Version | Previous Version | Text Only | Print | Product List | Glossary Off
Versions: 1 2 3 4 5 6 7 8 9 10 11 12 13 14 15 16 17 18 19 20 21 22 23 24 25 26 27 28 29 30 31 32 33 34 35 36 37 38 39 40 41 42 43 44 45 46 47 48 49 50
000 ASUS42 KMHX 270613 RWRMHX WEATHER ROUNDUP FOR EASTERN NORTH CAROLINA NATIONAL WEATHER SERVICE NEWPORT/MOREHEAD CITY NC 200 AM EDT THU APR 27 2017 NOTE: "FAIR" INDICATES FEW OR NO CLOUDS BELOW 12,000 FEET WITH NO SIGNIFICANT WEATHER AND/OR OBSTRUCTIONS TO VISIBILITY NCZ015>017-031-032-045>047-102-103-270700- NORTH COAST CITY SKY/WX TMP DP RH WIND PRES REMARKS EDENTON CLEAR 68 65 89 CALM 29.86F ELIZABETH CITY CLEAR 67 66 97 S6 29.85F KITTY HAWK CLOUDY 67 67 100 CALM 29.86S MANTEO MOCLDY 68 66 94 SW12 29.87S $$ NCZ045>047-081-094-103-104-270700- CENTRAL COAST CITY SKY/WX TMP DP RH WIND PRES REMARKS FRISCO CLEAR 71 67 87 SW10 29.89S FOG $$ NCZ095-097-098-100-101-270700- SOUTHERN COAST CITY SKY/WX TMP DP RH WIND PRES REMARKS BEAUFORT CLEAR 70 69 97 SW9 29.89S CEDAR ISLAND NOT AVBL JACKSONVILLE CLEAR 67 63 87 SW5 29.88S PINEY ISLAND CLEAR N/A N/A N/A SW8 29.89R WILMINGTON CLEAR 68 62 81 SW8 29.89S $$ NCZ011>013-027>030-043-044-078>080-089-090>093-098-270700- COASTAL PLAIN CITY SKY/WX TMP DP RH WIND PRES REMARKS AHOSKIE N/A 64 63 96 S3 29.85S CLINTON CLEAR 67 61 81 CALM 29.88S ELIZABETHTOWN CLEAR 66 58 76 S3 29.88S GOLDSBORO CLEAR 68 64 86 SW8 29.84S GREENVILLE CLEAR 68 64 88 SW9 29.88S HAVELOCK CLEAR 69 64 84 S7 29.89S KENANSVILLE PTCLDY 66 59 77 CALM 29.87F KINSTON CLEAR 67 60 77 CALM 29.87S NEW BERN CLEAR 66 65 96 S5 29.88F RICHLANDS CLEAR 63 61 93 S7 29.89S ROCKY MOUNT CLEAR 66 64 93 S6 29.85R WASHINGTON CLEAR 66 63 91 S3 29.87S WHITEVILLE CLEAR 62 59 88 CALM 29.88S $$ AMZ130-135-150-152-154-156-158-170-250-252-270-ANZ085-086-088-633-658-670-270700- MARINE OBSERVATIONS STATION/POSITION TIME TEMP WIND PRES WAVE SWELL AIR SEA DIR/SP/G HT/PER HT/PER (UTC) (F) (DEG/KT/KT) (MB) (FT/S) (FT/S) CHESAPEAKE LIGHT NOT AVBL 64 E VA BEACH 0550 59 56 190/ 8/ 10 1011.9 5/ 9 5/ 9 DUCK 0548 68 60 190/ 9/ 11 1010.7 2 E DUCK 0600 61 N/A 4/10 2/12 OREGON INLET 0542 68 68 190/ 10/ 11 1011.5 13E OREGON INLT 0548 59 N/A 5/ 9 5/ 9 HATTERAS CG 0548 72 69 210/ 7/ 11 1011.7 DIAMOND BUOY 0550 76 76 220/ 19/ 21 1011.9 7/ 9 5/ 9 CAPE LOOKOUT 0600 71 210/ 8/ 10 1011.9 BEAUFORT LAB 0548 70 67 210/ 6/ 9 1011.3 30 SE NEW RVR IN 0508 72 230/ 12/ 17 1012.4 30 SE NEW RVR IN 0543 71 N/A 5/ 8 27 SE WRIGHTSVLE 0508 72 72 200/ 12/ 17 1011.7 5 SE WRIGHTSVLE 0508 71 70 210/ 12/ 16 1012.2 225 S CAPE HAT 0550 74 75 190/ 14/ 17 1014.9 5/ 9 3/ 9 41 SE CHARLESTON 0550 74 73 190/ 14/ 19 1011.9 5/ 9 3/ 9 $$

USA.gov is the U.S. government's official web portal to all federal, state and local government web resources and services.